This is the latest recevied weather packets stored in our database for station/object N3TJJ-2. If no packets are shown the sender has not sent any weather packets the latest 10 day(s).
| Time | Temp. | Humidity | Pressure | Rain* | Wind** | Luminosity | Snow |
|---|---|---|---|---|---|---|---|
| 1777755554 | 12.78° C | 48% | 1012.4 hPa | 0 mm | - | - | - |
| 1777755197 | 13.33° C | 47% | 1012.4 hPa | 0 mm | - | - | - |
| 1777754832 | 13.33° C | 50% | 1012.4 hPa | 0 mm | - | - | - |
| 1777754478 | 12.78° C | 48% | 1012.4 hPa | 0 mm | - | - | - |
| 1777754117 | 13.33° C | 47% | 1012.4 hPa | 0 mm | - | - | - |
| 1777753759 | 13.33° C | 49% | 1012.4 hPa | 0 mm | - | - | - |
| 1777753518 | 13.33° C | 46% | 1012.6 hPa | 0 mm | - | - | - |
| 1777753403 | 13.33° C | 46% | 1012.6 hPa | 0 mm | - | - | - |
| 1777753043 | 13.33° C | 45% | 1012.5 hPa | 0 mm | - | - | - |
| 1777752956 | 13.33° C | 45% | 1012.7 hPa | 0 mm | - | - | - |
| 1777752677 | 13.33° C | 45% | 1012.7 hPa | 0 mm | - | - | - |
| 1777752326 | 13.33° C | 49% | 1012.7 hPa | 0 mm | - | - | - |
| 1777751953 | 13.33° C | 47% | 1012.8 hPa | 0 mm | - | - | - |
| 1777751593 | 13.33° C | 49% | 1012.7 hPa | 0 mm | - | - | - |
| 1777751233 | 13.33° C | 47% | 1012.8 hPa | 0 mm | - | - | - |
| 1777750878 | 13.33° C | 45% | 1012.9 hPa | 0 mm | - | - | - |
| 1777750535 | 13.33° C | 44% | 1013 hPa | 0 mm | - | - | - |
| 1777750158 | 12.78° C | 46% | 1013.1 hPa | 0 mm | - | - | - |
| 1777749794 | 13.33° C | 48% | 1013.3 hPa | 0 mm | - | - | - |
| 1777749432 | 13.33° C | 46% | 1013.3 hPa | 0 mm | - | - | - |
| 1777749081 | 12.78° C | 47% | 1013.5 hPa | 0 mm | - | - | - |
| 1777748717 | 12.78° C | 46% | 1013.6 hPa | 0 mm | - | - | - |
| 1777748354 | 13.33° C | 45% | 1013.7 hPa | 0 mm | - | - | - |
| 1777748002 | 13.33° C | 43% | 1013.6 hPa | 0 mm | - | - | - |
| 1777747633 | 13.33° C | 43% | 1013.8 hPa | 0 mm | - | - | - |
* Rain latest hour (hover to see other rain measurements)
** Current wind speed in m/s (hover to see current wind gust speed)